Norfolk, VA

6:23 PM EDT on July 22, 2017 (GMT -0400)
Norfolk International

Weather History for KORF - April, 2012

Change the Weather History Date:

Wednesday, April 18, 2012

  Actual Average Record
Temperature  
Mean Temperature 62 °F 59 °F  
Max Temperature 68 °F 68 °F 95 °F (1896)
Min Temperature 56 °F 50 °F 28 °F (1875)
Degree Days  
Heating Degree Days 3 7  
Month to date heating degree days 105 168  
Since 1 July heating degree days 2234 3229  
Cooling Degree Days 0 1  
Month to date cooling degree days 35 18  
Year to date cooling degree days 80 25  
Growing Degree Days 12 (Base 50)    
Moisture  
Dew Point 47 °F    
Average Humidity 56    
Maximum Humidity 77    
Minimum Humidity 34    
Precipitation  
Precipitation T in 0.12 in 0.99 in (2000)
Month to date precipitation 0.33 2.06  
Year to date precipitation 7.42 12.26  
Snow  
Snow 0.00 in 0.00 in 0.00 in (2002)
Month to date snowfall 0.0 0.0  
Since 1 July snowfall 0.5 5.8  
Snow Depth 0.00 in    
Sea Level Pressure  
Sea Level Pressure 30.14 in    
Wind  
Wind Speed 12 mph (NE)    
Max Wind Speed 26 mph    
Max Gust Speed 35 mph    
Visibility 10 miles    
Events      
T = Trace of Precipitation, MM = Missing Value Source: NWS Daily Summary

Daily Weather History Graph

Daily Weather History Graph

Search for Another Location

Airport or City:

Trip Planner

Search our weather history database for the weather conditions in past years. The results will help you decide how hot, cold, wet, or windy it might be!

Date:

Astronomy

Apr. 18, 2012 Rise Set
Actual Time 6:26 AM EDT 7:42 PM EDT
Civil Twilight 5:59 AM EDT 8:09 PM EDT
Nautical Twilight 5:26 AM EDT 8:41 PM EDT
Astronomical Twilight 4:53 AM EDT 9:15 PM EDT
Moon 4:47 AM EDT (4/18) 5:33 PM EDT (4/18)
Length of Visible Light 14h 10m
Length of Day
13h 16m
Waning Crescent, 6% of the Moon is Illuminated
Apr 18
Waning Crescent
Apr 21
New
Apr 29
First Quarter
May 5
Full
May 12
Last Quarter

Hourly Weather History & Observations

Time (EDT) Temp. Dew Point Humidity Pressure Visibility Wind Dir Wind Speed Gust Speed Precip Events Conditions
12:51 AM 64.0 °F 53.1 °F 67% 30.15 in 10.0 mi North 4.6 mph - N/A   Clear
1:51 AM 64.9 °F 52.0 °F 63% 30.14 in 10.0 mi North 6.9 mph - N/A   Clear
2:51 AM 64.9 °F 48.9 °F 56% 30.13 in 10.0 mi NNE 8.1 mph - N/A   Clear
3:51 AM 64.0 °F 52.0 °F 65% 30.13 in 10.0 mi NNE 8.1 mph - N/A   Mostly Cloudy
4:51 AM 64.0 °F 54.0 °F 70% 30.13 in 10.0 mi NNE 5.8 mph - N/A   Overcast
5:51 AM 63.0 °F 54.0 °F 72% 30.14 in 10.0 mi NNE 3.5 mph - N/A   Mostly Cloudy
6:51 AM 64.0 °F 54.0 °F 70% 30.17 in 10.0 mi North 8.1 mph - N/A   Overcast
7:51 AM 64.9 °F 53.1 °F 65% 30.19 in 10.0 mi North 10.4 mph - N/A   Overcast
8:51 AM 66.0 °F 45.0 °F 47% 30.19 in 10.0 mi NNE 18.4 mph - N/A   Mostly Cloudy
9:51 AM 64.9 °F 44.1 °F 47% 30.20 in 10.0 mi NE 21.9 mph 31.1 mph N/A   Clear
10:51 AM 63.0 °F 41.0 °F 45% 30.20 in 10.0 mi ENE 24.2 mph 33.4 mph N/A   Clear
11:51 AM 64.9 °F 37.0 °F 36% 30.20 in 10.0 mi NE 17.3 mph 27.6 mph N/A   Partly Cloudy
12:51 PM 64.0 °F 36.0 °F 35% 30.19 in 10.0 mi NE 16.1 mph 28.8 mph N/A   Overcast
1:51 PM 66.0 °F 39.0 °F 37% 30.17 in 10.0 mi ENE 16.1 mph 25.3 mph N/A   Mostly Cloudy
2:51 PM 64.9 °F 41.0 °F 42% 30.16 in 10.0 mi ENE 16.1 mph - N/A   Partly Cloudy
3:51 PM 63.0 °F 42.1 °F 46% 30.13 in 10.0 mi ENE 16.1 mph 23.0 mph N/A   Mostly Cloudy
4:51 PM 60.1 °F 44.1 °F 55% 30.13 in 10.0 mi ENE 11.5 mph 20.7 mph N/A   Overcast
5:51 PM 59.0 °F 45.0 °F 60% 30.13 in 10.0 mi ENE 13.8 mph - N/A   Overcast
6:51 PM 57.0 °F 45.0 °F 64% 30.11 in 10.0 mi ENE 12.7 mph 20.7 mph N/A   Partly Cloudy
7:51 PM 57.0 °F 46.0 °F 67% 30.11 in 10.0 mi ENE 12.7 mph - N/A   Clear
8:51 PM 57.0 °F 46.9 °F 69% 30.12 in 10.0 mi NE 11.5 mph - N/A   Overcast
8:59 PM 55.4 °F 46.4 °F 72% 30.12 in 10.0 mi ENE 12.7 mph - N/A   Overcast
9:51 PM 55.9 °F 46.9 °F 72% 30.12 in 10.0 mi ENE 9.2 mph - N/A   Mostly Cloudy
10:16 PM 55.4 °F 46.4 °F 72% 30.11 in 10.0 mi ENE 11.5 mph - N/A   Mostly Cloudy
10:51 PM 55.9 °F 48.0 °F 75% 30.11 in 10.0 mi East 8.1 mph - N/A   Mostly Cloudy
11:51 PM 55.9 °F 48.0 °F 75% 30.10 in 10.0 mi ENE 9.2 mph - 0.00 in   Overcast